User: anonymous   Login
Location: ROBOsky.com Wild Flower Ridge Observatory
(43.9736°N, 79.9739°W)
Time: 06:48:12
(UTC-05:00)
Language:

Cosmos 1190 Rocket - Orbit

View from above orbital plane
View from above orbital plane
View from above satellite
View from above satellite

Ground track
Ground track

The orbit data is extracted from the following two-line orbital elements,

1 11870U 80056B   16039.59716223  .00000055  00000-0  27407-4 0  9994
2 11870  74.0520  35.9238 0015154 113.8436 246.4307 14.36768371863772
Epoch (UTC): 08 February 2016 14:19:54
Eccentricity: 0.0015154
inclination: 74.0520°
perigee height: 758 km
apogee height: 780 km
right ascension of ascending node: 35.9238°
argument of perigee: 113.8436°
revolutions per day: 14.36768371
mean anomaly at epoch: 246.4307°
orbit number at epoch: 86377

The dashed part of the orbit path shows where the satellite is in the earth's shadow,  

DLR